VAW9130 LBSF-LYBE

Flight info

Callsign VAW9130
Flight time 0h 35m
Altitude 24000
Route OGOTA T228 UTEKA Y520 ESIRI Y88 OSVIX
Aircraft A320/M-SDE3FGHIRWY/LB1

Departure

Time 2026-05-01 14:02
Airport Sofia Airport (LBSF)

Arrival

Time 2026-05-01 14:37
Airport Belgrade Nikola Tesla Airport (LYBE)
Time Latitude Longitude Altitude Speed Heading
2026-05-01 13:37 42.69138 23.40034 1749 ft 0 kts 196°
2026-05-01 13:52 42.69137 23.40034 1721 ft 0 kts 196°
2026-05-01 13:56 42.69128 23.40031 1743 ft 4 kts 196°
2026-05-01 13:56 42.69089 23.40041 1742 ft 8 kts 129°
2026-05-01 13:56 42.69065 23.40133 1749 ft 13 kts 107°
2026-05-01 13:57 42.69044 23.40231 1740 ft 6 kts 106°
2026-05-01 13:57 42.69034 23.40276 1748 ft 9 kts 106°
2026-05-01 13:57 42.69072 23.40307 1749 ft 8 kts 17°
2026-05-01 13:57 42.69145 23.40335 1749 ft 13 kts 17°
2026-05-01 13:58 42.69248 23.40376 1749 ft 14 kts 17°
2026-05-01 13:58 42.69328 23.40410 1745 ft 14 kts 17°
2026-05-01 13:58 42.69429 23.40451 1749 ft 16 kts 17°
2026-05-01 13:58 42.69536 23.40519 1739 ft 14 kts 51°
2026-05-01 13:59 42.69583 23.40643 1744 ft 10 kts 65°
2026-05-01 13:59 42.69587 23.40654 1744 ft 0 kts 64°
2026-05-01 14:00 42.69593 23.40671 1743 ft 5 kts 63°
2026-05-01 14:00 42.69616 23.40736 1741 ft 10 kts 65°
2026-05-01 14:00 42.69654 23.40846 1744 ft 15 kts 64°
2026-05-01 14:01 42.69688 23.41004 1750 ft 19 kts 88°
2026-05-01 14:01 42.69675 23.41265 1751 ft 52 kts 94°
2026-05-01 14:01 42.69623 23.42135 1745 ft 129 kts 94°
2026-05-01 14:01 42.69533 23.43518 2178 ft 157 kts 90°
2026-05-01 14:02 42.69425 23.45055 2965 ft 166 kts 87°
2026-05-01 14:02 42.69772 23.46574 3756 ft 180 kts 52°
2026-05-01 14:02 42.70893 23.47511 4387 ft 211 kts 12°
2026-05-01 14:02 42.72449 23.47152 5092 ft 247 kts 340°
2026-05-01 14:03 42.74018 23.45996 6141 ft 263 kts 329°
2026-05-01 14:03 42.75556 23.44571 7286 ft 272 kts 326°
2026-05-01 14:03 42.77108 23.43056 8480 ft 277 kts 325°
2026-05-01 14:03 42.78684 23.41523 9706 ft 280 kts 325°
2026-05-01 14:04 42.80314 23.39976 10606 ft 296 kts 326°
2026-05-01 14:04 42.82093 23.38335 11099 ft 320 kts 327°
2026-05-01 14:04 42.83983 23.36626 11902 ft 330 kts 328°
2026-05-01 14:04 42.85263 23.35482 12542 ft 334 kts 328°
2026-05-01 14:05 42.87893 23.33146 13888 ft 340 kts 329°
2026-05-01 14:05 42.89879 23.31382 14858 ft 342 kts 329°
2026-05-01 14:05 42.91875 23.29606 15779 ft 344 kts 328°
2026-05-01 14:05 42.93894 23.27809 16596 ft 349 kts 328°
2026-05-01 14:06 42.95941 23.25986 17476 ft 352 kts 328°
2026-05-01 14:06 42.98003 23.24138 18357 ft 357 kts 327°
2026-05-01 14:06 43.00101 23.22258 19091 ft 364 kts 327°
2026-05-01 14:06 43.02221 23.20359 19967 ft 366 kts 327°
2026-05-01 14:07 43.04362 23.18444 20798 ft 369 kts 327°
2026-05-01 14:07 43.06516 23.16518 21643 ft 372 kts 327°
2026-05-01 14:07 43.08701 23.14563 22428 ft 376 kts 327°
2026-05-01 14:08 43.13123 23.10593 23899 ft 384 kts 327°
2026-05-01 14:08 43.15368 23.08568 24208 ft 388 kts 327°
2026-05-01 14:08 43.17634 23.06520 24300 ft 396 kts 327°
2026-05-01 14:08 43.19957 23.04422 24318 ft 403 kts 327°
2026-05-01 14:09 43.22314 23.02296 24316 ft 407 kts 327°
2026-05-01 14:09 43.24686 23.00157 24313 ft 409 kts 327°
2026-05-01 14:09 43.27054 22.98022 24316 ft 407 kts 327°
2026-05-01 14:09 43.29409 22.95897 24313 ft 406 kts 327°
2026-05-01 14:10 43.31775 22.93758 24300 ft 406 kts 327°
2026-05-01 14:10 43.34127 22.91622 24311 ft 405 kts 327°
2026-05-01 14:10 43.36483 22.89480 24317 ft 406 kts 327°
2026-05-01 14:10 43.38805 22.87367 24317 ft 406 kts 327°
2026-05-01 14:11 43.41157 22.85223 24299 ft 406 kts 327°
2026-05-01 14:11 43.45863 22.80930 24315 ft 406 kts 327°
2026-05-01 14:11 43.48227 22.78780 24308 ft 407 kts 327°
2026-05-01 14:12 43.50590 22.76630 24295 ft 407 kts 327°
2026-05-01 14:12 43.52952 22.74474 24303 ft 408 kts 327°
2026-05-01 14:12 43.55314 22.72313 24299 ft 408 kts 327°
2026-05-01 14:12 43.57679 22.70148 24308 ft 408 kts 327°
2026-05-01 14:13 43.60041 22.67990 24309 ft 407 kts 327°
2026-05-01 14:13 43.61635 22.66533 24309 ft 407 kts 327°
2026-05-01 14:13 43.64759 22.63668 24307 ft 407 kts 327°
2026-05-01 14:13 43.67121 22.61497 24306 ft 407 kts 327°
2026-05-01 14:14 43.69480 22.59329 24309 ft 408 kts 327°
2026-05-01 14:14 43.71074 22.57863 24308 ft 408 kts 327°
2026-05-01 14:14 43.73434 22.55689 24309 ft 408 kts 327°
2026-05-01 14:14 43.75765 22.53534 24306 ft 408 kts 327°
2026-05-01 14:15 43.78154 22.51323 24294 ft 408 kts 327°
2026-05-01 14:15 43.80482 22.49171 24301 ft 408 kts 327°
2026-05-01 14:15 43.82873 22.46961 24304 ft 408 kts 327°
2026-05-01 14:15 43.85229 22.44780 24306 ft 408 kts 327°
2026-05-01 14:16 43.87553 22.42626 24310 ft 407 kts 327°
2026-05-01 14:16 43.89843 22.40304 24309 ft 408 kts 320°
2026-05-01 14:16 43.91835 22.37498 24308 ft 410 kts 311°
2026-05-01 14:16 43.93472 22.34258 24311 ft 411 kts 304°
2026-05-01 14:17 43.94980 22.30887 24309 ft 411 kts 304°
2026-05-01 14:17 43.96491 22.27512 24309 ft 411 kts 304°
2026-05-01 14:17 43.98000 22.24145 24309 ft 411 kts 304°
2026-05-01 14:17 43.99510 22.20779 24308 ft 411 kts 304°
2026-05-01 14:18 44.01018 22.17409 24308 ft 411 kts 304°
2026-05-01 14:18 44.02521 22.14039 24308 ft 410 kts 304°
2026-05-01 14:18 44.04025 22.10670 24304 ft 410 kts 304°
2026-05-01 14:18 44.05530 22.07297 24304 ft 410 kts 304°
2026-05-01 14:19 44.07032 22.03930 24305 ft 410 kts 304°
2026-05-01 14:19 44.08533 22.00562 24304 ft 410 kts 304°
2026-05-01 14:19 44.10036 21.97186 24286 ft 410 kts 304°
2026-05-01 14:19 44.11536 21.93812 24281 ft 410 kts 304°
2026-05-01 14:20 44.13037 21.90435 24281 ft 410 kts 304°
2026-05-01 14:20 44.16031 21.83664 24284 ft 411 kts 304°
2026-05-01 14:20 44.17529 21.80276 24283 ft 411 kts 304°
2026-05-01 14:21 44.19031 21.76881 24287 ft 411 kts 304°
2026-05-01 14:21 44.20529 21.73487 24286 ft 411 kts 304°
2026-05-01 14:21 44.22025 21.70087 24274 ft 412 kts 304°
2026-05-01 14:22 44.25013 21.63289 24278 ft 404 kts 305°
2026-05-01 14:22 44.26469 21.59966 23393 ft 403 kts 305°
2026-05-01 14:22 44.27944 21.56606 22396 ft 405 kts 305°
2026-05-01 14:22 44.29390 21.53292 21893 ft 395 kts 304°
2026-05-01 14:23 44.30804 21.50041 21309 ft 390 kts 305°
2026-05-01 14:23 44.32202 21.46826 20733 ft 385 kts 305°
2026-05-01 14:23 44.33577 21.43630 20130 ft 382 kts 304°
2026-05-01 14:23 44.34914 21.40442 19508 ft 379 kts 304°
2026-05-01 14:24 44.36227 21.37263 18893 ft 376 kts 304°
2026-05-01 14:24 44.37527 21.34101 18205 ft 374 kts 304°
2026-05-01 14:24 44.38815 21.30963 17546 ft 370 kts 304°
2026-05-01 14:24 44.40092 21.27862 16900 ft 365 kts 304°
2026-05-01 14:25 44.41356 21.24803 16238 ft 362 kts 304°
2026-05-01 14:25 44.42611 21.21774 15589 ft 358 kts 303°
2026-05-01 14:25 44.43855 21.18772 14941 ft 355 kts 304°
2026-05-01 14:25 44.45090 21.15786 14284 ft 353 kts 303°
2026-05-01 14:26 44.46312 21.12823 13606 ft 350 kts 303°
2026-05-01 14:26 44.48713 21.06989 12310 ft 341 kts 303°
2026-05-01 14:26 44.49889 21.04129 11679 ft 337 kts 303°
2026-05-01 14:27 44.51050 21.01304 11059 ft 333 kts 302°
2026-05-01 14:27 44.52192 20.98521 10707 ft 322 kts 302°
2026-05-01 14:27 44.53275 20.95872 10582 ft 306 kts 302°
2026-05-01 14:28 44.55296 20.90918 10236 ft 284 kts 302°
2026-05-01 14:28 44.56269 20.88538 10032 ft 278 kts 302°
2026-05-01 14:28 44.57225 20.86196 9908 ft 274 kts 302°
2026-05-01 14:28 44.58149 20.83923 9765 ft 264 kts 302°
2026-05-01 14:29 44.59063 20.81717 9495 ft 259 kts 303°
2026-05-01 14:29 44.60009 20.79575 9146 ft 257 kts 304°
2026-05-01 14:30 44.62895 20.73228 8101 ft 256 kts 305°
2026-05-01 14:30 44.63845 20.71123 7784 ft 255 kts 305°
2026-05-01 14:30 44.64785 20.69032 7428 ft 250 kts 304°
2026-05-01 14:31 44.66618 20.64926 6234 ft 246 kts 304°
2026-05-01 14:31 44.67524 20.62895 5598 ft 245 kts 304°
2026-05-01 14:31 44.68421 20.60880 5151 ft 238 kts 304°
2026-05-01 14:31 44.69263 20.58987 4977 ft 219 kts 304°
2026-05-01 14:32 44.70061 20.57216 4601 ft 211 kts 306°
2026-05-01 14:32 44.70874 20.55483 4243 ft 214 kts 306°
2026-05-01 14:32 44.71676 20.53725 3943 ft 213 kts 305°
2026-05-01 14:32 44.72468 20.51962 3648 ft 212 kts 304°
2026-05-01 14:33 44.73248 20.50218 3359 ft 209 kts 305°
2026-05-01 14:33 44.74013 20.48504 3074 ft 206 kts 305°
2026-05-01 14:33 44.74773 20.46804 2796 ft 204 kts 305°
2026-05-01 14:33 44.75515 20.45139 2541 ft 196 kts 304°
2026-05-01 14:34 44.76229 20.43539 2270 ft 189 kts 304°
2026-05-01 14:34 44.76893 20.42046 2011 ft 170 kts 305°
2026-05-01 14:34 44.77478 20.40731 1800 ft 146 kts 305°
2026-05-01 14:34 44.77979 20.39607 1604 ft 128 kts 305°
2026-05-01 14:35 44.78439 20.38576 1431 ft 121 kts 306°
2026-05-01 14:35 44.78879 20.37583 1268 ft 118 kts 305°
2026-05-01 14:35 44.79317 20.36601 1104 ft 119 kts 308°
2026-05-01 14:35 44.79698 20.35745 958 ft 120 kts 304°
2026-05-01 14:36 44.80136 20.34747 776 ft 119 kts 306°
2026-05-01 14:36 44.80582 20.33763 614 ft 120 kts 304°
2026-05-01 14:36 44.81029 20.32764 430 ft 121 kts 302°
2026-05-01 14:36 44.81466 20.31767 314 ft 113 kts 300°
2026-05-01 14:37 44.81808 20.30992 308 ft 70 kts 303°
2026-05-01 14:37 44.81976 20.30615 308 ft 28 kts 302°
2026-05-01 14:37 44.82087 20.30365 305 ft 33 kts 302°
2026-05-01 14:37 44.82168 20.30054 307 ft 30 kts 272°
2026-05-01 14:38 44.82170 20.29852 308 ft 19 kts 271°
2026-05-01 14:38 44.82193 20.29679 310 ft 19 kts 297°
2026-05-01 14:38 44.82162 20.29589 309 ft 11 kts 216°
2026-05-01 14:38 44.82086 20.29515 308 ft 10 kts 213°
2026-05-01 14:39 44.82076 20.29481 310 ft 5 kts 300°
2026-05-01 14:39 44.82102 20.29424 307 ft 9 kts 302°
2026-05-01 14:39 44.82134 20.29356 309 ft 8 kts 301°
2026-05-01 14:39 44.82123 20.29314 309 ft 4 kts 224°
2026-05-01 14:40 44.82104 20.29295 307 ft 4 kts 212°
2026-05-01 14:40 44.82097 20.29289 307 ft 0 kts 211°
2026-05-01 14:40 44.82093 20.29286 307 ft 0 kts 211°